User: anonymous   Login
Location: Unspecified
(0.0000°N, 0.0000°E)
Time: 06:52:50
(UTC+00:00)
Language:

STSS DEMO 1 (USA 208) - Orbit

View from above orbital plane
View from above orbital plane
View from above satellite
View from above satellite

Ground track
Ground track

The orbit data is extracted from the following two-line orbital elements,

1 35937U 09052A   14350.76213816 0.00000050  00000-0  22172-3 0    05
2 35937  57.9917 333.2918 0016464  91.9479 268.0521 12.79144444    00
Epoch (UTC): 16 December 2014 18:17:28
Eccentricity: 0.0016464
inclination: 57.9917°
perigee height: 1332 km
apogee height: 1357 km
right ascension of ascending node: 333.2918°
argument of perigee: 91.9479°
revolutions per day: 12.79144444
mean anomaly at epoch: 268.0521°
orbit number at epoch: 0

The dashed part of the orbit path shows where the satellite is in the earth's shadow,  

DLR